User: anonymous   Login
Location: Unspecified
(0.0000°N, 0.0000°E)
Time: 07:22:04
(UTC+02:00)
Language:

Cosmos 1536 - Orbit

View from above orbital plane
View from above orbital plane
View from above satellite
View from above satellite

Ground track
Ground track

The orbit data is extracted from the following two-line orbital elements,

1 14699U 84013A   16240.57226213  .00000561  00000-0  37679-4 0  9994
2 14699  82.5226 253.7330 0012363 345.1107  14.9754 15.04786949768931
Epoch (UTC): 27 August 2016 13:44:03
Eccentricity: 0.0012363
inclination: 82.5226°
perigee height: 543 km
apogee height: 561 km
right ascension of ascending node: 253.7330°
argument of perigee: 345.1107°
revolutions per day: 15.04786949
mean anomaly at epoch: 14.9754°
orbit number at epoch: 76893

The dashed part of the orbit path shows where the satellite is in the earth's shadow,  

DLR